FW2617 Weather Reports


Display with metric or nautical units.
time (UTC)temp
F
wind
direction
speed
MPH
gust
MPH
rain 1hr
in
rain 24hr
in
rain mn
in
humidity
%
barometer
mb
20260508171803 71 150 3.0 7.0 0.00 0.00 0.00 71 1010.5
20260508170904 70 147 4.0 10.0 0.00 0.00 0.00 71 1010.6
20260508170004 70 159 4.0 9.0 0.00 0.00 0.00 72 1010.8
20260508165403 70 158 3.0 9.0 0.00 0.00 0.00 71 1010.9
20260508164524 70 153 4.0 10.0 0.00 0.00 0.00 72 1011.0
20260508163603 72 139 3.0 6.0 0.00 0.00 0.00 71 1011.1
20260508162703 72 147 2.0 6.0 0.00 0.00 0.00 71 1011.0
20260508161803 71 103 2.0 6.0 0.00 0.00 0.00 76 1011.1
20260508160924 69 87 1.0 4.0 0.00 0.00 0.00 78 1011.2
20260508160004 67 95 1.0 3.0 0.00 0.00 0.00 78 1011.5
20260508155425 67 92 1.0 3.0 0.00 0.00 0.00 78 1011.6
20260508154503 66 108 1.0 3.0 0.00 0.00 0.00 78 1011.9
20260508153603 66 139 1.0 2.0 0.00 0.00 0.00 79 1012.1
20260508152724 66 136 0.0 2.0 0.00 0.00 0.00 79 1012.2
20260508151803 65 142 0.0 1.0 0.00 0.00 0.00 81 1012.2
20260508150903 65 149 1.0 5.0 0.00 0.00 0.00 81 1012.4
20260508150004 65 153 2.0 4.0 0.00 0.00 0.00 80 1012.4
20260508145424 65 152 1.0 4.0 0.00 0.00 0.00 80 1012.3
20260508144503 65 154 0.0 2.0 0.00 0.00 0.00 82 1012.4
20260508143603 64 118 1.0 4.0 0.00 0.00 0.00 82 1012.3
20260508142703 64 82 1.0 3.0 0.00 0.00 0.00 83 1012.2
20260508141803 64 66 1.0 4.0 0.00 0.00 0.00 84 1012.2
20260508140903 64 103 0.0 2.0 0.00 0.00 0.00 85 1012.1
20260508140003 63 65 1.0 4.0 0.00 0.00 0.00 85 1012.3
20260508135424 63 66 2.0 5.0 0.00 0.00 0.00 86 1012.4
20260508134503 63 57 1.0 5.0 0.00 0.00 0.00 86 1012.5
20260508133603 62 0 0.0 0.0 0.00 0.00 0.00 87 1012.4
20260508132703 62 0 0.0 0.0 0.00 0.00 0.00 87 1012.5
20260508131803 61 144 0.0 3.0 0.00 0.00 0.00 89 1012.4
20260508130903 60 144 0.0 2.0 0.00 0.00 0.00 90 1012.7
20260508130004 59 0 0.0 0.0 0.00 0.00 0.00 90 1012.7
20260508125403 59 0 0.0 0.0 0.00 0.00 0.00 90 1012.8
20260508124503 58 0 0.0 0.0 0.00 0.00 0.00 90 1012.9
20260508123603 58 0 0.0 0.0 0.00 0.00 0.00 90 1012.7
20260508122704 57 0 0.0 0.0 0.00 0.00 0.00 89 1012.5
20260508121803 57 0 0.0 0.0 0.00 0.00 0.00 90 1012.4
20260508120903 57 0 0.0 0.0 0.00 0.00 0.00 90 1012.4
20260508120004 57 0 0.0 0.0 0.00 0.00 0.00 89 1012.3
20260508115403 57 0 0.0 0.0 0.00 0.00 0.00 89 1012.5
20260508114503 57 0 0.0 0.0 0.00 0.00 0.00 89 1012.5
20260508113603 57 0 0.0 0.0 0.00 0.00 0.00 89 1012.7
20260508112703 57 0 0.0 0.0 0.00 0.00 0.00 89 1012.5
20260508111824 57 0 0.0 0.0 0.00 0.00 0.00 89 1012.3
20260508110903 58 0 0.0 0.0 0.00 0.00 0.00 90 1012.4
20260508110003 58 0 0.0 0.0 0.00 0.00 0.00 89 1012.5
20260508105403 58 0 0.0 0.0 0.00 0.00 0.00 89 1012.8
20260508104504 58 144 0.0 2.0 0.00 0.00 0.00 89 1012.6
20260508103603 58 144 0.0 2.0 0.00 0.00 0.00 89 1012.6
20260508102703 58 144 0.0 3.0 0.00 0.00 0.00 88 1012.3
20260508101804 58 0 0.0 0.0 0.00 0.00 0.00 87 1012.5
20260508100903 58 144 0.0 1.0 0.00 0.00 0.00 87 1012.8
20260508100004 59 144 1.0 2.0 0.00 0.00 0.00 87 1012.3
20260508095403 59 144 1.0 2.0 0.00 0.00 0.00 87 1012.3
20260508094503 59 144 0.0 1.0 0.00 0.00 0.00 88 1012.1
20260508093603 59 144 0.0 1.0 0.00 0.00 0.00 88 1012.0
20260508092703 59 152 1.0 4.0 0.00 0.00 0.00 88 1012.1
20260508091803 60 0 0.0 0.0 0.00 0.00 0.00 87 1012.3
20260508090903 60 0 0.0 0.0 0.00 0.00 0.00 87 1012.3
20260508090003 60 0 0.0 0.0 0.00 0.00 0.00 87 1012.3
20260508085403 60 0 0.0 0.0 0.00 0.00 0.00 87 1012.2
20260508084503 60 0 0.0 0.0 0.00 0.00 0.00 87 1012.2
20260508083603 60 0 0.0 0.0 0.00 0.00 0.00 87 1012.4
20260508082703 60 0 0.0 0.0 0.00 0.00 0.00 87 1012.5
20260508081804 60 0 0.0 0.0 0.00 0.00 0.00 86 1012.6
20260508080903 60 0 0.0 0.0 0.00 0.00 0.00 86 1012.8
20260508080004 60 0 0.0 0.0 0.00 0.00 0.00 86 1013.1
20260508075404 60 0 0.0 0.0 0.00 0.00 0.00 86 1013.5
20260508074524 60 0 0.0 0.0 0.00 0.00 0.00 86 1013.6
20260508073624 60 0 0.0 0.0 0.00 0.00 0.00 85 1013.6
20260508072703 59 0 0.0 0.0 0.00 0.00 0.00 84 1013.5
20260508071803 60 0 0.0 0.0 0.00 0.00 0.00 84 1013.3
20260508070903 60 0 0.0 0.0 0.00 0.00 0.00 83 1013.2
20260508070004 60 0 0.0 0.0 0.00 0.00 0.00 83 1012.9
20260508065403 60 0 0.0 0.0 0.00 0.00 0.00 82 1013.1
20260508064524 60 0 0.0 0.0 0.00 0.00 0.00 82 1013.1
20260508063624 60 0 0.0 0.0 0.00 0.00 0.00 82 1013.2
20260508062704 60 0 0.0 0.0 0.00 0.00 0.00 81 1013.5
20260508061803 60 0 0.0 0.0 0.00 0.00 0.00 81 1013.6
20260508060903 60 0 0.0 0.0 0.00 0.00 0.00 81 1013.6
20260508060024 61 0 0.0 0.0 0.00 0.00 0.00 81 1013.8
20260508055404 61 0 0.0 0.0 0.00 0.00 0.00 81 1013.8
20260508054503 61 0 0.0 0.0 0.00 0.00 0.00 80 1013.8
20260508053624 61 0 0.0 0.0 0.00 0.00 0.00 80 1013.8
20260508052703 61 0 0.0 0.0 0.00 0.00 0.00 80 1014.0
20260508051803 61 0 0.0 0.0 0.00 0.00 0.00 79 1014.1
20260508050903 61 0 0.0 0.0 0.00 0.00 0.00 79 1014.0
20260508050025 62 0 0.0 0.0 0.00 0.00 0.00 79 1014.0
20260508045403 62 0 0.0 0.0 0.00 0.00 0.00 79 1014.1
20260508044503 62 0 0.0 0.0 0.00 0.00 0.00 79 1013.9
20260508043624 62 0 0.0 0.0 0.00 0.00 0.00 80 1013.7
20260508042704 62 0 0.0 0.0 0.00 0.00 0.00 79 1013.9
20260508041803 62 0 0.0 0.0 0.00 0.00 0.00 77 1013.8
20260508040924 62 0 0.0 0.0 0.00 0.00 0.00 77 1013.8
20260508040003 63 0 0.0 0.0 0.00 0.00 0.00 77 1013.9
20260508035403 63 0 0.0 0.0 0.00 0.00 0.00 76 1013.9
20260508034503 63 0 0.0 0.0 0.00 0.00 0.00 75 1013.8
20260508033603 63 175 0.0 1.0 0.00 0.00 0.00 75 1013.6
20260508032724 63 175 0.0 2.0 0.00 0.00 0.00 74 1013.7
20260508031824 63 174 0.0 1.0 0.00 0.00 0.00 72 1013.3
20260508030904 63 175 0.0 2.0 0.00 0.00 0.00 72 1013.1
20260508030004 64 174 0.0 1.0 0.00 0.00 0.00 73 1012.8
20260508025403 64 174 0.0 1.0 0.00 0.00 0.00 71 1012.7
20260508024503 64 0 0.0 0.0 0.00 0.00 0.00 71 1012.9
20260508023603 64 0 0.0 0.0 0.00 0.00 0.00 70 1012.7
20260508022703 64 0 0.0 0.0 0.00 0.00 0.00 71 1012.7
20260508021803 65 0 0.0 0.0 0.00 0.00 0.00 69 1012.8
20260508020903 65 174 0.0 1.0 0.00 0.00 0.00 69 1012.6
20260508020004 65 175 0.0 2.0 0.00 0.00 0.00 69 1013.0
20260508015425 65 175 0.0 2.0 0.00 0.00 0.00 69 1012.8
20260508014524 65 175 1.0 2.0 0.00 0.00 0.00 69 1013.1
20260508013603 66 175 0.0 1.0 0.00 0.00 0.00 68 1012.8
20260508012703 66 174 0.0 1.0 0.00 0.00 0.00 67 1012.9
20260508011803 66 174 0.0 1.0 0.00 0.00 0.00 66 1012.9
20260508010903 66 174 0.0 2.0 0.00 0.00 0.00 65 1012.8
20260508010004 66 174 0.0 2.0 0.00 0.00 0.00 65 1012.7
20260508005405 66 174 1.0 3.0 0.00 0.00 0.00 65 1012.8
20260508004504 67 174 1.0 3.0 0.00 0.00 0.00 65 1013.0
20260508003625 67 174 1.0 2.0 0.00 0.00 0.00 65 1012.9
20260508002704 67 168 1.0 3.0 0.00 0.00 0.00 64 1013.0
20260508001825 67 167 1.0 3.0 0.00 0.00 0.00 62 1013.0
20260508000905 67 166 1.0 4.0 0.00 0.00 0.00 62 1013.1
20260508000005 67 168 1.0 4.0 0.00 0.00 0.00 63 1013.2
20260507235405 67 166 1.0 4.0 0.00 0.00 0.00 63 1013.3
20260507234505 68 164 2.0 5.0 0.00 0.00 0.00 61 1013.4
20260507233605 68 160 2.0 5.0 0.00 0.00 0.00 59 1013.5
20260507232704 68 160 1.0 2.0 0.00 0.00 0.00 60 1013.2
20260507231804 68 160 1.0 4.0 0.00 0.00 0.00 61 1013.1
20260507230904 68 172 1.0 2.0 0.00 0.00 0.00 61 1013.2
20260507230005 68 156 1.0 4.0 0.00 0.00 0.00 60 1013.5
20260507225405 68 149 1.0 3.0 0.00 0.00 0.00 59 1013.4
20260507224505 68 165 1.0 4.0 0.00 0.00 0.00 58 1013.6
20260507223626 68 168 1.0 4.0 0.00 0.00 0.00 58 1013.4
20260507222704 69 158 1.0 4.0 0.00 0.00 0.00 58 1013.7
20260507221804 69 172 2.0 4.0 0.00 0.00 0.00 58 1013.6
20260507220905 69 167 2.0 6.0 0.00 0.00 0.00 58 1013.9
20260507220026 69 164 2.0 6.0 0.00 0.00 0.00 58 1013.9
20260507215405 69 159 2.0 5.0 0.00 0.00 0.00 58 1013.7
20260507214525 70 164 2.0 6.0 0.00 0.00 0.00 58 1013.7
20260507213625 70 153 2.0 6.0 0.00 0.00 0.00 57 1014.1
20260507212704 70 106 1.0 4.0 0.00 0.00 0.00 58 1013.9
20260507211804 70 119 1.0 2.0 0.00 0.00 0.00 58 1014.1
20260507210904 70 132 1.0 5.0 0.00 0.00 0.00 56 1014.4
20260507210005 70 154 1.0 5.0 0.00 0.00 0.00 56 1014.7
20260507205404 70 145 0.0 3.0 0.00 0.00 0.00 57 1014.7
20260507204505 71 61 0.0 3.0 0.00 0.00 0.00 56 1014.9
20260507203604 71 63 1.0 5.0 0.00 0.00 0.00 57 1014.7
20260507202725 71 81 1.0 2.0 0.00 0.00 0.00 56 1014.8
20260507201805 71 54 1.0 4.0 0.00 0.00 0.00 58 1014.6
20260507200905 70 57 2.0 8.0 0.00 0.00 0.00 59 1014.6
20260507200004 70 61 3.0 9.0 0.00 0.00 0.00 57 1014.7
20260507195404 71 53 2.0 7.0 0.00 0.00 0.00 58 1014.7
20260507194504 70 65 2.0 6.0 0.00 0.00 0.00 58 1014.8
20260507193604 70 58 3.0 8.0 0.00 0.00 0.00 58 1014.9
20260507192704 71 76 1.0 8.0 0.00 0.00 0.00 59 1015.2
20260507191826 71 56 2.0 6.0 0.00 0.00 0.00 59 1015.4
20260507190905 70 42 2.0 8.0 0.00 0.00 0.00 58 1015.8
20260507190005 70 54 2.0 8.0 0.00 0.00 0.00 60 1016.0
20260507185405 70 69 1.0 8.0 0.00 0.00 0.00 60 1016.2
20260507184504 70 339 1.0 3.0 0.00 0.00 0.00 60 1016.3
20260507183605 70 37 2.0 6.0 0.00 0.00 0.00 60 1016.2
20260507182704 69 34 5.0 12.0 0.00 0.00 0.00 61 1016.1
20260507181804 69 38 5.0 11.0 0.00 0.00 0.00 59 1015.9
20260507180904 69 55 5.0 11.0 0.00 0.00 0.00 60 1015.8
20260507180004 69 33 6.0 14.0 0.00 0.00 0.00 59 1016.1
20260507175425 69 23 6.0 11.0 0.00 0.00 0.00 61 1016.1
20260507174504 69 25 5.0 12.0 0.00 0.00 0.00 61 1016.1
20260507173625 69 11 6.0 11.0 0.00 0.00 0.00 62 1016.1
20260507172704 70 15 6.0 13.0 0.00 0.00 0.00 63 1016.5